Hourly Data Report for March 02, 2020

All times are specified in Local Standard Time (LST). Add 1 hour to adjust for Daylight Saving Time where and when it is observed.

OTTAWA INTL A
ONTARIO
Current Station Operator: NAVCAN

45°19'00.000" N
75°40'00.000" W
114.90 m
6106001
71628
YOW

Download Data

Hourly Data (March 2020)
Hourly Data Report for March 2, 2020
TIME Temp Definition
°C
Dew Point Definition
°C
Rel Hum Definition
%
Wind Dir Definition
10's deg

Wind Spd Definition
km/h
Visibility Definition
km
Stn Press Definition
kPa
Hmdx Definition


Wind Chill Definition


Weather Definition


00:00 -7.3 -9.1 87 7 9 1.6 100.21   -12 Snow
01:00 -7.2 -8.6 90 8 20 1.6 100.07   -14 Snow
02:00 -6.6 -7.9 91 10 23 12.9 99.88   -14 Snow
03:00 -6.0 -7.2 92 9 19 12.9 99.75   -13 LegendNANA
04:00 -6.0 -7.0 92 8 17 12.9 99.65   -12 Cloudy
05:00 -5.7 -6.9 91 7 21 12.9 99.54   -13 LegendNANA
06:00 -5.4 -6.7 90 7 14 16.1 99.46   -11 LegendNANA
07:00 -6.0 -7.2 91 5 16 16.1 99.39   -12 Cloudy
08:00 -5.7 -7.1 90 6 14 24.1 99.35   -11 LegendNANA
09:00 -5.0 -6.7 88 8 13 24.1 99.29   -10 LegendNANA
10:00 -3.4 -5.7 84 9 13 24.1 99.19   -8 Mostly Cloudy
11:00 -2.0 -4.9 81 7 13 24.1 99.09   -6 LegendNANA
12:00 -1.4 -4.5 79 6 12 24.1 99.00   -5 LegendNANA
13:00 0.1 -3.0 79 7 10 24.1 98.89     Cloudy
14:00 0.5 -2.3 81 5 12 24.1 98.80     LegendNANA
15:00 2.2 1.3 94 23 5 6.4 98.81     Rain,Fog
16:00 3.6 3.0 96 20 13 12.9 98.79     Rain
17:00 3.8 3.2 96 19 14 16.1 98.79     Rain
18:00 3.8 3.3 97 20 16 16.1 98.81     Rain
19:00 3.6 3.1 97 20 11 9.7 98.82     Drizzle,Fog
20:00 3.6 3.2 97 21 11 11.3 98.87     LegendNANA
21:00 3.5 3.2 98 24 10 9.7 98.94     Fog
22:00 3.2 2.9 98 24 11 8.1 98.98     Fog
23:00 1.9 1.5 97 25 9 6.4 99.01     Fog

Notes on Data Quality.

Legend

  • E = Estimated
  • M = Missing
  • NA = Not Available*
  • [empty] = Indicates an unobserved value
Date modified: